Location: Chakepay
(13.3931°S, 72.1925°W)
Time: 00:31:48
(UTC+00:00)

SJ 16-02 - Pass Details

Date: 15 November 2019
Orbit: 606 x 616 km, 75.0° (Epoch: 14 December)

Event Time Altitude Azimuth Distance (km) Brightness Sun altitude
Rises 09:14:50 0° 214° (SW) 2,890 4.7 -13.7°
Reaches altitude 10° 09:17:30 10° 229° (SW) 1,977 3.7 -13.1°
Maximum altitude 09:20:52 21° 279° (W) 1,370 2.5 -12.3°
Enters shadow 09:24:04 11° 328° (NNW) 1,921 3.4 -11.6°
